| time (UTC) | temp F | wind direction | speed MPH | gust MPH | rain 1hr in | rain 24hr in | rain mn in | humidity % | barometer mb |
| 20260902104615 | 63 | 0 | 0.0 | 0.0 | 0.00 | 0.21 | 0.03 | 100 | 1019.9 |
| 20260902103059 | 63 | 0 | 0.0 | 0.0 | 0.00 | 0.21 | 0.03 | 100 | 1020.0 |
| 20260902101553 | 63 | 0 | 0.0 | 0.0 | 0.00 | 0.21 | 0.03 | 100 | 1019.6 |
| 20260902100055 | 63 | 0 | 0.0 | 0.0 | 0.01 | 0.21 | 0.03 | 99 | 1019.5 |
| 20260902094551 | 63 | 0 | 0.0 | 1.0 | 0.01 | 0.21 | 0.03 | 100 | 1019.5 |
| 20260902093105 | 63 | 0 | 0.0 | 0.0 | 0.01 | 0.21 | 0.03 | 100 | 1019.3 |
| 20260902091553 | 63 | 0 | 0.0 | 0.0 | 0.02 | 0.21 | 0.03 | 100 | 1019.4 |
| 20260902090051 | 64 | 0 | 0.0 | 0.0 | 0.01 | 0.20 | 0.02 | 100 | 1019.4 |
| 20260902084549 | 64 | 0 | 0.0 | 0.0 | 0.01 | 0.20 | 0.02 | 99 | 1019.4 |
| 20260902083058 | 63 | 0 | 0.0 | 0.0 | 0.01 | 0.20 | 0.02 | 99 | 1019.1 |
| 20260902081554 | 64 | 0 | 0.0 | 0.0 | 0.00 | 0.19 | 0.01 | 99 | 1018.8 |
| 20260902080051 | 64 | 0 | 0.0 | 0.0 | 0.00 | 0.19 | 0.01 | 99 | 1018.7 |
| 20260902074609 | 64 | 0 | 0.0 | 3.0 | 0.00 | 0.19 | 0.01 | 99 | 1018.5 |
| 20260902073102 | 64 | 0 | 0.0 | 3.0 | 0.00 | 0.19 | 0.01 | 99 | 1018.5 |
| 20260902071554 | 64 | 0 | 0.0 | 0.0 | 0.00 | 0.19 | 0.01 | 99 | 1018.3 |
| 20260902070105 | 64 | 0 | 0.0 | 0.0 | 0.01 | 0.19 | 0.01 | 99 | 1018.4 |
| 20260902064555 | 64 | 0 | 0.0 | 0.0 | 0.01 | 0.29 | 0.01 | 99 | 1018.5 |
| 20260902063059 | 64 | 0 | 0.0 | 0.0 | 0.01 | 0.29 | 0.01 | 99 | 1018.7 |
| 20260902060058 | 64 | 0 | 0.0 | 0.0 | 0.00 | 0.28 | 0.00 | 99 | 1018.8 |
| 20260902054613 | 64 | 0 | 0.0 | 0.0 | 0.00 | 0.36 | 0.00 | 98 | 1018.9 |
| 20260902053106 | 64 | 0 | 0.0 | 0.0 | 0.00 | 0.36 | 0.00 | 98 | 1018.7 |
| 20260902051556 | 64 | 0 | 0.0 | 0.0 | 0.00 | 0.36 | 0.00 | 98 | 1018.5 |
| 20260902050106 | 64 | 0 | 0.0 | 0.0 | 0.00 | 0.36 | 0.00 | 98 | 1018.7 |
| 20260902044607 | 64 | 0 | 0.0 | 0.0 | 0.00 | 0.65 | 0.00 | 98 | 1018.8 |
| 20260902043105 | 64 | 0 | 0.0 | 0.0 | 0.00 | 0.65 | 0.00 | 97 | 1018.6 |
| 20260902041556 | 65 | 0 | 0.0 | 0.0 | 0.00 | 0.65 | 0.00 | 97 | 1018.6 |
| 20260902040107 | 65 | 0 | 0.0 | 4.0 | 0.00 | 0.65 | 0.00 | 97 | 1018.5 |
| 20260902034605 | 65 | 0 | 0.0 | 2.0 | 0.00 | 0.71 | 0.65 | 97 | 1018.2 |
| 20260902033059 | 65 | 0 | 0.0 | 1.0 | 0.00 | 0.71 | 0.65 | 97 | 1017.9 |
| 20260902031601 | 65 | 0 | 0.0 | 1.0 | 0.00 | 0.71 | 0.65 | 97 | 1017.6 |
| 20260902024600 | 65 | 0 | 0.0 | 3.0 | 0.00 | 0.71 | 0.65 | 97 | 1017.4 |
| 20260902023108 | 65 | 0 | 0.0 | 0.0 | 0.00 | 0.71 | 0.65 | 97 | 1017.4 |
| 20260902021553 | 66 | 0 | 0.0 | 4.0 | 0.00 | 0.71 | 0.65 | 97 | 1017.2 |
| 20260902014556 | 66 | 0 | 0.0 | 1.0 | 0.00 | 0.71 | 0.65 | 98 | 1017.1 |
| 20260902013055 | 66 | 0 | 0.0 | 1.0 | 0.00 | 0.71 | 0.65 | 97 | 1016.4 |
| 20260902011549 | 67 | 0 | 0.0 | 1.0 | 0.00 | 0.71 | 0.65 | 97 | 1016.2 |
| 20260902010048 | 67 | 0 | 0.0 | 4.0 | 0.03 | 0.71 | 0.65 | 97 | 1016.0 |
| 20260902004601 | 68 | 0 | 1.0 | 9.0 | 0.03 | 0.71 | 0.65 | 96 | 1015.7 |
| 20260902003059 | 68 | 0 | 0.0 | 4.0 | 0.03 | 0.71 | 0.65 | 96 | 1015.8 |
| 20260902001603 | 70 | 0 | 1.0 | 8.0 | 0.03 | 0.71 | 0.65 | 95 | 1015.2 |
| 20260902000106 | 71 | 0 | 0.0 | 9.0 | 0.00 | 0.68 | 0.62 | 95 | 1015.0 |
| 20260901234557 | 72 | 0 | 0.0 | 6.0 | 0.00 | 0.68 | 0.62 | 95 | 1014.8 |
| 20260901233058 | 73 | 69 | 0.0 | 4.0 | 0.00 | 0.68 | 0.62 | 95 | 1014.8 |
| 20260901231554 | 74 | 0 | 0.0 | 2.0 | 0.00 | 0.68 | 0.62 | 95 | 1014.8 |
| 20260901224559 | 76 | 0 | 0.0 | 5.0 | 0.00 | 0.68 | 0.62 | 94 | 1014.4 |
| 20260901223056 | 77 | 0 | 0.0 | 2.0 | 0.00 | 0.68 | 0.62 | 93 | 1013.8 |
| 20260901221600 | 77 | 0 | 0.0 | 0.0 | 0.00 | 0.68 | 0.62 | 92 | 1013.9 |
| 20260901220056 | 77 | 0 | 0.0 | 1.0 | 0.00 | 0.68 | 0.62 | 91 | 1014.0 |
| 20260901214548 | 78 | 0 | 0.0 | 1.0 | 0.00 | 0.68 | 0.62 | 90 | 1014.0 |
| 20260901213055 | 79 | 0 | 0.0 | 1.0 | 0.00 | 0.68 | 0.62 | 89 | 1014.2 |
| 20260901211554 | 79 | 0 | 0.0 | 0.0 | 0.00 | 0.68 | 0.62 | 89 | 1014.2 |
| 20260901210100 | 79 | 0 | 0.0 | 0.0 | 0.00 | 0.68 | 0.62 | 90 | 1014.1 |
| 20260901204558 | 78 | 0 | 0.0 | 0.0 | 0.00 | 0.68 | 0.62 | 93 | 1014.1 |
| 20260901203103 | 77 | 0 | 0.0 | 0.0 | 0.00 | 0.68 | 0.62 | 93 | 1014.1 |
| 20260901201603 | 77 | 0 | 0.0 | 0.0 | 0.00 | 0.68 | 0.62 | 92 | 1014.1 |
| 20260901200100 | 78 | 0 | 0.0 | 0.0 | 0.00 | 0.68 | 0.62 | 89 | 1014.2 |
| 20260901194601 | 79 | 0 | 0.0 | 0.0 | 0.00 | 0.68 | 0.62 | 87 | 1014.3 |
| 20260901193054 | 0 | 0.0 | 0.0 | 0.00 | 0.68 | 0.62 | 1014.1 | ||
| 20260901191601 | 78 | 0 | 0.0 | 3.0 | 0.01 | 0.68 | 0.62 | 91 | 1014.2 |
| 20260901190048 | 77 | 0 | 0.0 | 5.0 | 0.01 | 0.68 | 0.62 | 90 | 1014.2 |
| 20260901184557 | 77 | 0 | 0.0 | 2.0 | 0.00 | 0.67 | 0.61 | 93 | 1014.3 |
| 20260901183054 | 76 | 0 | 0.0 | 4.0 | 0.00 | 0.67 | 0.61 | 95 | 1014.2 |
| 20260901181559 | 75 | 0 | 0.0 | 4.0 | 0.00 | 0.67 | 0.61 | 97 | 1014.3 |
| 20260901180058 | 75 | 0 | 0.0 | 1.0 | 0.01 | 0.67 | 0.61 | 99 | 1014.2 |
| 20260901174554 | 74 | 0 | 0.0 | 5.0 | 0.02 | 0.67 | 0.61 | 100 | 1014.2 |
| 20260901173100 | 74 | 168 | 1.0 | 6.0 | 0.03 | 0.67 | 0.61 | 100 | 1014.1 |
| 20260901171604 | 72 | 0 | 0.0 | 0.0 | 0.03 | 0.67 | 0.61 | 100 | 1014.4 |
| 20260901170052 | 72 | 0 | 0.0 | 1.0 | 0.01 | 0.65 | 0.58 | 100 | 1014.8 |
| 20260901164550 | 72 | 0 | 0.0 | 0.0 | 0.01 | 0.65 | 0.58 | 100 | 1014.5 |
| 20260901163059 | 72 | 0 | 0.0 | 0.0 | 0.02 | 0.64 | 0.58 | 100 | 1015.2 |
| 20260901161608 | 72 | 0 | 0.0 | 0.0 | 0.04 | 0.64 | 0.58 | 100 | 1015.2 |
| 20260901160108 | 72 | 0 | 0.0 | 1.0 | 0.06 | 0.64 | 0.58 | 100 | 1015.0 |
| 20260901154557 | 71 | 0 | 0.0 | 1.0 | 0.08 | 0.64 | 0.58 | 100 | 1015.3 |
| 20260901153100 | 71 | 0 | 0.0 | 1.0 | 0.07 | 0.62 | 0.56 | 100 | 1015.9 |
| 20260901151557 | 71 | 0 | 0.0 | 1.0 | 0.06 | 0.60 | 0.54 | 100 | 1016.1 |
| 20260901150049 | 71 | 0 | 0.0 | 3.0 | 0.04 | 0.57 | 0.51 | 100 | 1015.8 |
| 20260901144601 | 71 | 0 | 0.0 | 0.0 | 0.03 | 0.56 | 0.50 | 100 | 1015.8 |
| 20260901143100 | 71 | 0 | 0.0 | 0.0 | 0.02 | 0.55 | 0.49 | 100 | 1016.0 |
| 20260901141552 | 71 | 0 | 0.0 | 0.0 | 0.00 | 0.52 | 0.47 | 100 | 1015.9 |
| 20260901140049 | 71 | 0 | 0.0 | 0.0 | 0.00 | 0.52 | 0.47 | 100 | 1016.1 |
| 20260901134549 | 71 | 0 | 0.0 | 0.0 | 0.00 | 0.52 | 0.47 | 100 | 1015.8 |
| 20260901133059 | 71 | 0 | 0.0 | 0.0 | 0.00 | 0.52 | 0.47 | 100 | 1015.7 |
| 20260901131555 | 70 | 0 | 0.0 | 0.0 | 0.00 | 0.52 | 0.47 | 100 | 1015.7 |
| 20260901130059 | 70 | 0 | 0.0 | 0.0 | 0.00 | 0.52 | 0.47 | 100 | 1015.8 |
| 20260901124549 | 70 | 0 | 0.0 | 0.0 | 0.00 | 0.52 | 0.47 | 100 | 1015.9 |
| 20260901123058 | 70 | 0 | 0.0 | 0.0 | 0.00 | 0.52 | 0.47 | 100 | 1015.6 |
| 20260901121551 | 70 | 0 | 0.0 | 0.0 | 0.00 | 0.52 | 0.47 | 100 | 1015.7 |
| 20260901120050 | 70 | 0 | 0.0 | 0.0 | 0.00 | 0.52 | 0.47 | 100 | 1015.6 |
| 20260901114622 | 70 | 0 | 0.0 | 0.0 | 0.00 | 0.52 | 0.47 | 100 | 1015.9 |
| 20260901113057 | 69 | 0 | 0.0 | 0.0 | 0.00 | 0.52 | 0.47 | 100 | 1015.8 |
| 20260901111552 | 69 | 0 | 0.0 | 0.0 | 0.00 | 0.52 | 0.47 | 100 | 1015.6 |